Retour au catalogue

FENGYUN 1C DEB

ActifSSO
NORAD 29924·DEBRIS·🇨🇳 China

Lancé May 10, 1999 depuis Taiyuan Satellite Launch Center

Loading…

Prochains Passages (prochaines 24 heures)

TLE

FraisSource: Space-Track

Époque: Sep 14, 2026, 12:13 UTC

1 29924U 99025HW  26257.50918734  .00000001  00000-0  25104-4 0  9997
2 29924  98.7286 266.8574 0026536 196.2383 317.4871 14.08958109 10928

Suivez FENGYUN 1C DEB en temps réel avec AllMySat

Download on the App Store